User: anonymous   Login
Location: NJAA Observatory
(40.6819°N, 74.8979°W)
Time: 10:11:07
(UTC-04:00)
Language:

Iridium 84 - Orbit

View from above orbital plane
View from above orbital plane
View from above satellite
View from above satellite

Ground track
Ground track

The orbit data is extracted from the following two-line orbital elements,

1 25530U 98066D   15088.50453199  .00000490  00000-0  16806-3 0  9999
2 25530 086.3970 328.8831 0002070 083.3092 276.8340 14.34216863860807
Epoch (UTC): 29 March 2015 12:06:31
Eccentricity: 0.0002070
inclination: 86.3970°
perigee height: 776 km
apogee height: 779 km
right ascension of ascending node: 328.8831°
argument of perigee: 83.3092°
revolutions per day: 14.34216863
mean anomaly at epoch: 276.8340°
orbit number at epoch: 86080

The dashed part of the orbit path shows where the satellite is in the earth's shadow,  

DLR